Volver al catálogo

IRIDIUM 4

ActivoComunicacionesPO
NORAD 24796·PAYLOAD·🇺🇸 United States

Lanzado May 5, 1997 desde Vandenberg Space Force Base

Loading…

Próximos Pases (próximas 24 horas)

TLE

ActualizadoSource: Space-Track

Época: Sep 13, 2026, 17:47 UTC

1 24796U 97020E   26256.74152113  .00000199  00000-0  60080-4 0  9998
2 24796  86.4012 343.2994 0002340  93.5191 266.6274 14.37199266537604

Sigue IRIDIUM 4 en tiempo real con AllMySat

Download on the App Store